Change the Weather History Date:

Monday, November 12, 2012

  Actual Average Record
Temperature  
Mean Temperature 52 °F -  
Max Temperature 63 °F 56 °F 72 °F (2013)
Min Temperature 41 °F 42 °F 30 °F (2006)
Degree Days  
Heating Degree Days 13    
Growing Degree Days 2 (Base 50)    
Moisture  
Dew Point 42 °F    
Average Humidity 73    
Maximum Humidity 93    
Minimum Humidity 38    
Precipitation  
Precipitation 0.00 in 0.11 in - ()
Sea Level Pressure  
Sea Level Pressure 30.32 in    
Wind  
Wind Speed 2 mph ()    
Max Wind Speed 8 mph    
Max Gust Speed -    
Visibility 6.2 miles    
Events      
Averages and records for this station are not official NWS values.
T = Trace of Precipitation, MM = Missing Value Source: Averaged Metar Reports

Daily Weather History Graph

Daily Weather History Graph

Search for Another Location

Airport or City:

Trip Planner

Search our weather history database for the weather conditions in past years. The results will help you decide how hot, cold, wet, or windy it might be!

Date:

Astronomy

Nov. 12, 2012 Rise Set
Actual Time 7:00 AM EET 5:00 PM EET
Civil Twilight 6:30 AM EET 5:29 PM EET
Nautical Twilight 5:57 AM EET 6:02 PM EET
Astronomical Twilight 5:25 AM EET 6:34 PM EET
Moon 5:01 AM EET (11/12) 3:51 PM EET (11/12)
Length of Visible Light 10h 58m
Length of Day
10h 00m
Waning Crescent, 3% of the Moon is Illuminated
Nov 12
Waning Crescent
Nov 14
New
Nov 20
First Quarter
Nov 28
Full
Dec 6
Last Quarter

Hourly Weather History & Observations

Time (EET) Temp. Windchill Dew Point Humidity Pressure Visibility Wind Dir Wind Speed Gust Speed Precip Events Conditions
12:20 AM 48.2 °F - 42.8 °F 82% 30.33 in - Calm Calm - N/A   Clear
12:50 AM 46.4 °F - 41.0 °F 81% 30.33 in - Calm Calm - N/A   Clear
1:20 AM 46.4 °F - 41.0 °F 81% 30.33 in - Calm Calm - N/A   Clear
1:50 AM 46.4 °F - 41.0 °F 81% 30.36 in - Calm Calm - N/A   Clear
2:00 AM 47 °F - 41 °F 73% 30.36 in 6 mi Calm Calm - -  
2:20 AM 46.4 °F - 41.0 °F 81% 30.36 in - Calm Calm - N/A   Clear
2:50 AM 46.4 °F - 41.0 °F 81% 30.33 in - Calm Calm - N/A   Clear
3:20 AM 46.4 °F - 41.0 °F 81% 30.33 in - Calm Calm - N/A   Clear
3:50 AM 44.6 °F - 39.2 °F 81% 30.33 in - Calm Calm - N/A   Clear
4:20 AM 44.6 °F - 39.2 °F 81% 30.33 in - Calm Calm - N/A   Clear
4:50 AM 44.6 °F - 39.2 °F 81% 30.33 in - Calm Calm - N/A   Clear
5:20 AM 44.6 °F - 39.2 °F 81% 30.33 in - Calm Calm - N/A   Clear
5:50 AM 42.8 °F - 39.2 °F 87% 30.33 in - Calm Calm - N/A   Clear
6:20 AM 42.8 °F - 39.2 °F 87% 30.33 in - Calm Calm - N/A   Clear
6:50 AM 41.0 °F - 39.2 °F 93% 30.33 in 6.2 mi Calm Calm - N/A   Partly Cloudy
7:20 AM 41.0 °F - 39.2 °F 93% 30.33 in 6.2 mi Calm Calm - N/A   Partly Cloudy
7:50 AM 41.0 °F - 37.4 °F 87% 30.36 in 6.2 mi Calm Calm - N/A   Partly Cloudy
8:00 AM 41 °F - 38 °F 85% 30.37 in 6 mi Calm Calm - -   Scattered Clouds
8:20 AM 41.0 °F 38.0 °F 37.4 °F 87% 30.36 in 6.2 mi ENE 4.6 mph - N/A   Partly Cloudy
8:50 AM 46.4 °F - 44.6 °F 93% 30.36 in - Variable 2.3 mph - N/A   Clear
9:20 AM 50.0 °F - 46.4 °F 87% 30.36 in - Variable 2.3 mph - N/A   Clear
9:50 AM 51.8 °F - 46.4 °F 82% 30.36 in - East 4.6 mph - N/A   Clear
10:20 AM 55.4 °F - 48.2 °F 77% 30.36 in - East 5.8 mph - N/A   Clear
10:50 AM 57.2 °F - 46.4 °F 67% 30.33 in - ENE 6.9 mph - N/A   Clear
11:20 AM 57.2 °F - 46.4 °F 67% 30.33 in - East 8.1 mph - N/A   Clear
11:50 AM 60.8 °F - 48.2 °F 63% 30.33 in 6.2 mi ENE 6.9 mph - N/A   Scattered Clouds
12:50 PM 62.6 °F - 48.2 °F 59% 30.33 in 6.2 mi East 4.6 mph - N/A   Scattered Clouds
1:20 PM 64.4 °F - 48.2 °F 56% 30.33 in 6.2 mi ENE 6.9 mph - N/A   Scattered Clouds
1:50 PM 64.4 °F - 44.6 °F 49% 30.30 in 6.2 mi East 5.8 mph - N/A   Scattered Clouds
2:00 PM 64 °F - 44 °F 38% 30.31 in 6 mi East 5.8 mph - -   Scattered Clouds
2:20 PM 64.4 °F - 44.6 °F 49% 30.30 in 6.2 mi East 6.9 mph - N/A   Scattered Clouds
2:50 PM 62.6 °F - 44.6 °F 52% 30.30 in 6.2 mi ENE 8.1 mph - N/A   Mostly Cloudy
3:20 PM 62.6 °F - 44.6 °F 52% 30.30 in 6.2 mi ENE 6.9 mph - N/A   Mostly Cloudy
3:50 PM 62.6 °F - 44.6 °F 52% 30.30 in 6.2 mi ENE 6.9 mph - N/A   Mostly Cloudy
4:20 PM 60.8 °F - 44.6 °F 55% 30.30 in 6.2 mi NE 5.8 mph - N/A   Mostly Cloudy
4:50 PM 60.8 °F - 46.4 °F 59% 30.30 in 6.2 mi NE 4.6 mph - N/A   Mostly Cloudy
5:20 PM 59.0 °F - 46.4 °F 63% 30.30 in 6.2 mi NE 4.6 mph - N/A   Mostly Cloudy
5:50 PM 59.0 °F - 48.2 °F 67% 30.30 in 6.2 mi North 4.6 mph - N/A   Mostly Cloudy
6:20 PM 55.4 °F - 44.6 °F 67% 30.30 in 6.2 mi North 4.6 mph - N/A   Scattered Clouds
6:50 PM 53.6 °F - 42.8 °F 67% 30.30 in 6.2 mi North 6.9 mph - N/A   Scattered Clouds
7:20 PM 51.8 °F - 42.8 °F 71% 30.30 in 6.2 mi North 6.9 mph - N/A   Scattered Clouds
7:50 PM 50.0 °F - 37.4 °F 62% 30.30 in - Calm Calm - N/A   Clear
8:00 PM 51 °F - 36 °F 46% 30.31 in 6 mi Calm Calm - -   Clear
8:20 PM 50.0 °F - 41.0 °F 71% 30.30 in - Calm Calm - N/A   Clear
8:50 PM 48.2 °F - 39.2 °F 71% 30.30 in - Calm Calm - N/A   Clear
9:20 PM 48.2 °F - 39.2 °F 71% 30.30 in - Calm Calm - N/A   Clear
9:50 PM 48.2 °F - 42.8 °F 82% 30.30 in - East 3.5 mph - N/A   Clear
10:20 PM 48.2 °F - 42.8 °F 82% 30.30 in - East 3.5 mph - N/A   Clear
10:50 PM 46.4 °F 44.3 °F 42.8 °F 87% 30.30 in - NE 4.6 mph - N/A   Clear
11:20 PM 46.4 °F 44.3 °F 42.8 °F 87% 30.30 in - NE 4.6 mph - N/A   Clear
11:50 PM 46.4 °F 42.9 °F 41.0 °F 81% 30.30 in - North 6.9 mph - N/A   Clear